South Hill, VA

6:54 PM EST on December 14, 2019 (GMT -0500)
Mecklenburg-Brunswick Regional

Weather History for KAVC - September, 2019

Change the Weather History Date:

Saturday, September 14, 2019

  Actual Average (WUND) Record (WUND)
Temperature  
Mean Temperature 74 °F -  
Max Temperature 82 °F - - (-1)
Min Temperature 67 °F - - (-1)
Cooling Degree Days 10    
Growing Degree Days 24 (Base 50)    
Moisture  
Dew Point 68 °F    
Average Humidity 87    
Maximum Humidity 100    
Minimum Humidity 63    
Precipitation  
Precipitation 0.00 in - - ()
Sea Level Pressure  
Sea Level Pressure 30.31 in    
Wind  
Wind Speed 1 mph (NE)    
Max Wind Speed 6 mph    
Max Gust Speed -    
Averages and records for this station are not official NWS values.
T = Trace of Precipitation, MM = Missing Value Source: NWS Daily Summary

Daily Weather History Graph

Daily Weather History Graph

Search for Another Location

Airport or City:

Astronomy

Sep. 14, 2019 Rise Set
Actual Time 6:53 AM EDT 7:21 PM EDT
Civil Twilight 6:27 AM EDT 7:47 PM EDT
Nautical Twilight 5:56 AM EDT 8:17 PM EDT
Astronomical Twilight 5:25 AM EDT 8:48 PM EDT
Moon 8:01 PM EDT 7:06 AM EDT
Length of Visible Light 13h 19m
Length of Day
12h 28m
Full, 100% of the Moon is Illuminated
Sep 14
Full
Sep 21
Last Quarter
Sep 28
New
Oct 5
First Quarter
Oct 13
Full

Hourly Weather History & Observations

Time (EDT) Temp. Heat Index Dew Point Humidity Pressure Visibility Wind Dir Wind Speed Gust Speed Precip Events Conditions
12:15 AM 68.7 °F - 67.5 °F 96% 30.37 in - Calm Calm - N/A   Unknown
12:35 AM 68.5 °F - 67.5 °F 96% 30.37 in - Calm Calm - N/A   Unknown
12:55 AM 68.4 °F - 67.5 °F 97% 30.37 in - Calm Calm - N/A   Unknown
1:15 AM 68.4 °F - 67.5 °F 97% 30.36 in - Calm Calm - N/A   Unknown
1:35 AM 68.2 °F - 67.5 °F 98% 30.36 in - Calm Calm - N/A   Overcast
1:55 AM 68.2 °F - 67.6 °F 98% 30.36 in - Calm Calm - N/A   Overcast
2:15 AM 68.0 °F - 67.5 °F 98% 30.36 in - North 4.6 mph - N/A   Overcast
2:35 AM 68.0 °F - 67.5 °F 98% 30.35 in - North 4.6 mph - N/A   Overcast
2:55 AM 67.8 °F - 67.3 °F 98% 30.34 in - Calm Calm - N/A   Overcast
3:15 AM 67.8 °F - 67.1 °F 98% 30.34 in - North 4.6 mph - N/A   Overcast
3:35 AM 67.6 °F - 67.1 °F 98% 30.34 in - Calm Calm - N/A   Overcast
3:55 AM 67.5 °F - 67.1 °F 99% 30.33 in - Calm Calm - N/A   Overcast
4:15 AM 67.6 °F - 67.1 °F 98% 30.34 in - North 3.5 mph - N/A   Overcast
4:35 AM 67.5 °F - 67.1 °F 99% 30.34 in - North 3.5 mph - N/A   Overcast
4:55 AM 67.3 °F - 67.1 °F 99% 30.34 in - North 3.5 mph - N/A   Unknown
5:15 AM 67.3 °F - 67.3 °F 100% 30.34 in - North 3.5 mph - N/A   Unknown
5:35 AM 67.3 °F - 67.3 °F 100% 30.34 in - North 3.5 mph - N/A   Overcast
5:55 AM 67.3 °F - 67.3 °F 100% 30.34 in - NNE 3.5 mph - N/A   Unknown
6:15 AM 67.1 °F - 67.1 °F 100% 30.34 in - NNE 3.5 mph - N/A   Unknown
6:35 AM 67.1 °F - 67.1 °F 100% 30.34 in - Calm Calm - N/A   Overcast
6:55 AM 67.1 °F - 67.1 °F 100% 30.34 in - Calm Calm - N/A   Overcast
7:15 AM 67.1 °F - 67.1 °F 100% 30.35 in - Calm Calm - N/A   Overcast
7:35 AM 67.3 °F - 67.1 °F 99% 30.35 in - Calm Calm - N/A   Overcast
7:55 AM 67.3 °F - 67.1 °F 99% 30.36 in - Calm Calm - N/A   Overcast
8:15 AM 68.0 °F - 67.3 °F 98% 30.36 in - North 4.6 mph - N/A   Unknown
8:35 AM 68.2 °F - 67.3 °F 97% 30.36 in - North 3.5 mph - N/A   Unknown
8:55 AM 68.9 °F - 67.5 °F 95% 30.36 in - Calm Calm - N/A   Unknown
9:15 AM 69.8 °F - 67.6 °F 93% 30.37 in - Calm Calm - N/A   Unknown
9:35 AM 70.7 °F - 68.2 °F 92% 30.37 in - Calm Calm - N/A   Unknown
9:55 AM 70.9 °F - 68.2 °F 91% 30.36 in - Calm Calm - N/A   Unknown
10:20 AM 72.5 °F - 68.5 °F 87% 30.37 in - Calm Calm - N/A   Unknown
10:40 AM 74.8 °F - 69.3 °F 83% 30.36 in - Calm Calm - N/A   Overcast
10:55 AM 74.7 °F - 69.1 °F 83% 30.36 in - Calm Calm - N/A   Overcast
11:15 AM 76.8 °F - 70.0 °F 79% 30.35 in - ESE 3.5 mph - N/A   Overcast
11:35 AM 76.8 °F - 70.0 °F 79% 30.35 in - South 4.6 mph - N/A   Overcast
11:55 AM 77.5 °F - 70.0 °F 77% 30.35 in - Calm Calm - N/A   Overcast
12:15 PM 79.2 °F - 70.2 °F 74% 30.34 in - South 5.8 mph - N/A   Overcast
12:35 PM 79.2 °F - 69.8 °F 73% 30.34 in - ESE 4.6 mph - N/A   Overcast
12:55 PM 79.3 °F - 68.0 °F 68% 30.32 in - Calm Calm - N/A   Overcast
1:15 PM 80.1 °F 82.9 °F 69.3 °F 69% 30.32 in - NE 3.5 mph - N/A   Overcast
1:35 PM 79.5 °F - 68.7 °F 69% 30.31 in - Calm Calm - N/A   Overcast
1:55 PM 79.9 °F - 68.7 °F 69% 30.31 in - Calm Calm - N/A   Overcast
2:15 PM 79.9 °F - 68.9 °F 69% 30.30 in - Calm Calm - N/A   Overcast
2:35 PM 80.6 °F 83.5 °F 68.7 °F 67% 30.30 in - SSE 5.8 mph - N/A   Overcast
2:55 PM 79.9 °F - 68.7 °F 69% 30.29 in - Calm Calm - N/A   Overcast
3:15 PM 80.4 °F 83.4 °F 68.9 °F 68% 30.29 in - SSE 4.6 mph - N/A   Overcast
3:35 PM 80.8 °F 83.8 °F 68.9 °F 67% 30.27 in - Calm Calm - N/A   Overcast
3:55 PM 81.1 °F 84.2 °F 68.9 °F 66% 30.27 in - South 3.5 mph - N/A   Overcast
4:15 PM 81.1 °F 84.2 °F 68.7 °F 66% 30.26 in - SE 3.5 mph - N/A   Overcast
4:35 PM 81.3 °F 84.3 °F 68.4 °F 65% 30.26 in - Calm Calm - N/A   Overcast
4:55 PM 81.3 °F 84.3 °F 68.5 °F 65% 30.25 in - Calm Calm - N/A   Overcast
5:15 PM 81.9 °F 85.0 °F 68.5 °F 64% 30.25 in - ESE 3.5 mph - N/A   Overcast
5:35 PM 82.0 °F 85.3 °F 68.7 °F 64% 30.24 in - Calm Calm - N/A   Overcast
5:55 PM 82.2 °F 85.3 °F 68.4 °F 63% 30.24 in - Calm Calm - N/A   Mostly Cloudy
6:15 PM 81.7 °F 84.5 °F 68.2 °F 63% 30.24 in - Calm Calm - N/A   Scattered Clouds
6:35 PM 81.3 °F 84.3 °F 68.7 °F 65% 30.24 in - Calm Calm - N/A   Clear
6:55 PM 79.9 °F - 69.8 °F 71% 30.25 in - Calm Calm - N/A   Clear
7:15 PM 77.2 °F - 70.2 °F 79% 30.25 in - Calm Calm - N/A   Clear
7:35 PM 75.4 °F - 71.1 °F 86% 30.25 in - Calm Calm - N/A   Unknown
7:55 PM 74.1 °F - 70.7 °F 89% 30.25 in - Calm Calm - N/A   Unknown
8:15 PM 72.9 °F - 69.8 °F 90% 30.25 in - Calm Calm - N/A   Unknown
8:35 PM 71.4 °F - 69.8 °F 95% 30.25 in - Calm Calm - N/A   Unknown
8:55 PM 71.2 °F - 70.3 °F 97% 30.25 in - Calm Calm - N/A   Unknown
9:15 PM 71.4 °F - 70.2 °F 96% 30.25 in - Calm Calm - N/A   Unknown
9:35 PM 71.1 °F - 69.8 °F 96% 30.25 in - Calm Calm - N/A   Unknown
9:55 PM 70.7 °F - 69.6 °F 96% 30.25 in - Calm Calm - N/A   Unknown
10:15 PM 72.0 °F - 69.8 °F 93% 30.25 in - Calm Calm - N/A   Unknown
10:42 PM 69.8 °F - 69.8 °F 100% 30.25 in - Calm Calm - N/A   Unknown
10:55 PM 70.2 °F - 69.4 °F 98% 30.24 in - Calm Calm - N/A   Unknown
11:15 PM 68.7 °F - 68.7 °F 100% 30.24 in - Calm Calm - N/A   Unknown
11:35 PM 69.8 °F - 69.3 °F 98% 30.24 in - Calm Calm - N/A   Unknown
11:55 PM 69.1 °F - 69.1 °F 100% 30.24 in - Calm Calm - N/A   Mostly Cloudy